SCP
0 0 0 0 0 0 0 0 0 0 0 0 0 0 0 0 0 0 0 0 0 0 0 0 0 0 0 0 0 0 0 0 0 0 0 0 0 0 0 -0 0 0 0 0
0 0 0 0 0 0 0 0 0 0 0 0 0 0 0 0 0 0 -0 0 0 0 0 0 0 0 0 0 0 0 0 0 0 0 0 0 0 0 0 0 0 0 0 0
0 0 0 0 0 0 0 0 0 0 0 0 0 0 0 0 0 0 0 0 0 0 0 0 0 0 0 0 0 0 0 0 0 0 0 0 0 0 0 0 0 0 0 0
0 0 0 0 0 0 0 0 0 0 0 0 0 0 0 0 0 0 0 0 0 0 0 0 0 0 0 0 0 0 0 0 0 0 0 0 0 0 0 0 0 0 0 -0
0 0 0 0 0 0 0 0 0 0 0 0 0 0 0 0 0 0 0 0 0 0 0 0 0 0 0 0 0 0 0 0 0 0 0 -0 0 0 0 0 0 0 0 0
0 0 0 0 0 0 0 0 0 0 0 0 0 0 0 0 0 0 0 0 0 0 0 0 0 0 0 0 0 0 0 0 0 0 0 0 0 0 0 0 0 0 0 0
0 0 0 0 0 0 0 0 0 0 0 0 0 0 0 0 0 0 0 0 0 0 0 0 -0 0 0 0 0 0 0 0 0 0 0 0 0 0 0 0 0 0 0 0
0 0 0 0 0 0 0 0 0 0 0 0 0 0 0 0 0 0 0 0 0 0 0 0 0 0 0 0 0 0 0 0 0 0 0 0 0 0 0 0 0 -0 0 1
0 0 0 0 0 0 0 0 0 0 0 0 0 0 0 0 0 0 0 0 0 0 0 0 0 0 0 0 0 0 0 0 0 0 0 0 0 0 0 0 0 0 0 0
0 0 0 0 0 0 0 0 0 0 0 -0 0 0 0 0 0 -0 0 0 0 0 0 0 0 0 0 0 0 0 0 0 0 0 0 0 0 0 0 0 0 0 0 -0
-0 0 -0 0 0 0 0 0 0 0 0 -0 0 0 0 0 0 0 0 0 0 0 0 0 0 0 0 0 0 0 0 0 0 0 0 0 0 0 0 -0 0 0 -0 -0
0 0 -0 0 0 0 0 -0 -0 0 -0 0 0 0 0 0 0 0 0 0 0 0 0 0 0 1 0 0 0 0 0 0 0 0 0 0 0 0 -0 0 0 0 -1 -0
0 -0 -0 0 0 0 0 -0 -0 0 -0 0 0 0 0 0 0 0 0 0 0 0 0 0 0 0 0 0 0 0 0 0 0 0 0 0 -0 0 0 0 0 -0 -0 -1
0 0 -0 -0 -0 -0 0 -0 0 -0 0 0 0 0 0 0 0 0 0 0 0 0 0 0 0 0 0 0 0 0 0 0 0 0 0 0 0 0 0 0 0 1 0 -1
0 0 0 -0 -0 -0 0 0 -0 0 0 0 0 0 0 0 0 -0 -0 -0 0 0 0 0 0 0 0 0 0 0 0 0 0 0 0 0 0 0 0 0 1 1 0 0
0 0 -0 -0 -0 0 -0 0 -0 -0 -0 0 0 0 0 0 0 0 -0 0 0 0 0 0 0 0 0 0 0 0 0 0 0 0 0 0 0 0 0 1 1 1 0 -0
0 -0 -0 -0 -0 0 -0 0 -0 0 0 0 0 0 -0 -0 -0 -0 0 0 0 0 0 0 0 0 0 0 0 0 0 0 0 0 0 0 0 1 1 1 1 1 1 1
-0 -0 -0 -0 0 -0 0 -0 -0 0 0 0 0 0 0 0 -0 0 0 0 0 0 0 0 0 0 0 0 0 0 0 0 0 0 0 0 1 1 2 1 1 1 0 0
-0 -0 0 0 -0 0 0 -0 -0 0 0 0 0 0 0 0 0 -0 0 0 0 0 0 0 0 0 0 0 0 0 0 0 0 0 0 1 2 2 2 1 1 1 1 0
0 -0 -0 0 0 -0 0 0 0 0 0 0 0 0 0 0 0 -0 0 0 0 0 0 0 0 0 0 0 0 0 0 0 0 0 1 1 1 2 1 1 1 1 1 0
0 0 0 0 -0 0 0 0 0 0 0 0 0 0 0 0 0 -0 0 0 0 0 0 0 0 0 0 0 0 0 0 0 0 0 0 0 0 1 1 1 0 1 1 1
0 0 0 0 -0 0 0 0 0 0 0 0 0 0 0 0 0 0 0 -0 0 0 0 0 0 0 0 0 0 0 0 0 0 0 0 0 1 0 0 0 0 0 0 0
0 0 -0 0 0 -0 0 0 0 0 0 0 0 0 0 0 0 0 0 0 0 0 0 0 0 0 0 0 0 0 0 0 0 0 0 0 0 0 0 0 0 0 0 0
0 -0 -0 0 0 0 0 0 0 0 0 0 0 0 0 0 0 0 0 0 0 0 0 0 0 0 0 0 0 0 0 0 0 0 0 0 0 0 0 0 0 0 0 0
0 0 -0 -0 0 0 0 0 0 0 0 0 0 0 0 0 0 0 0 0 0 0 0 0 0 0 0 0 0 0 0 0 0 0 0 0 0 0 0 0 0 0 0 0
0 0 0 -0 -0 0 0 0 0 0 0 0 0 0 0 0 0 0 0 0 0 0 0 0 0 0 0 0 0 0 0 0 0 0 0 0 0 0 0 0 0 0 0 0
0 0 0 0 0 -0 0 0 0 0 0 0 0 0 0 0 0 0 0 0 0 0 0 0 0 0 0 0 0 0 0 0 0 0 0 0 0 0 0 0 0 0 0 0
Wind_Speed_500mb
46 47 49 51 55 55 43 17 5 9 35 6 3 7 11 7 6 3 1 3 6 7 5 1 4 9 9 12 26 18 12 10 8 16 2 9 8 14 12 10 10 3 7 10
45 45 47 49 50 53 51 35 10 5 23 5 4 8 9 5 7 8 7 6 8 3 3 1 4 5 9 11 14 20 15 3 3 14 11 5 9 10 7 9 8 10 11 10
39 41 42 44 44 42 39 15 7 3 15 4 4 4 9 7 12 6 11 8 2 5 3 8 8 5 8 23 5 8 29 9 15 14 15 9 7 12 12 5 9 13 11 7
37 37 38 39 40 37 28 8 5 8 4 4 3 4 5 6 8 8 20 6 11 12 11 7 11 8 12 16 15 11 14 14 12 15 12 10 11 18 23 15 12 13 13 18
34 33 34 37 37 33 14 7 9 15 13 21 5 10 12 18 10 10 8 10 13 13 12 9 5 1 2 10 11 3 2 9 11 16 13 16 13 11 5 7 5 10 14 10
32 31 31 34 34 30 8 6 6 5 14 9 4 8 11 11 8 14 27 20 12 7 11 28 51 49 41 25 6 11 8 14 10 14 8 11 9 16 15 10 9 14 11 16
29 27 31 34 26 25 19 14 9 2 10 5 8 9 13 16 8 7 17 18 9 10 29 45 37 39 43 38 33 33 10 6 8 8 6 8 19 13 22 31 10 10 9 21
29 31 36 35 24 23 24 16 7 6 8 11 22 25 10 23 23 12 17 33 39 28 12 6 9 5 4 19 28 27 33 9 6 13 9 9 9 8 18 18 20 19 20 20
34 34 33 31 28 23 29 20 10 16 8 12 25 10 20 8 6 10 9 15 14 16 9 7 10 12 16 12 6 9 17 17 7 9 15 26 17 13 23 11 10 19 37 40
31 29 27 30 28 27 26 23 20 17 14 44 37 13 8 8 3 5 10 17 0 12 7 11 9 11 11 13 22 16 11 6 29 6 10 13 15 14 41 17 19 51 68 72
34 32 27 31 29 28 26 20 21 30 17 55 61 43 26 10 4 3 12 12 1 6 5 10 10 10 13 6 12 21 15 16 10 6 10 11 19 21 26 20 26 81 69 86
30 29 30 29 27 26 23 21 14 22 29 47 41 61 58 40 37 31 8 9 5 5 3 5 8 8 3 9 9 2 11 15 13 21 14 13 61 45 62 52 64 73 95 79
28 24 26 25 24 23 24 27 23 25 25 59 53 51 30 39 61 57 17 13 6 1 29 11 7 12 7 9 10 10 2 7 12 11 11 16 57 19 51 38 74 96 100 111
31 31 28 23 21 24 27 34 33 33 16 11 17 23 12 11 40 44 50 38 48 50 46 17 9 7 7 7 4 4 7 8 13 2 1 9 32 29 46 39 59 67 83 118
36 36 32 29 26 25 29 38 33 22 20 10 29 52 15 31 30 31 25 39 54 35 14 10 9 7 3 2 2 6 4 9 10 11 13 9 31 60 30 46 68 85 98 85
37 36 35 33 28 26 27 6 8 10 11 12 7 13 1 40 24 28 22 38 62 29 14 14 15 8 3 3 3 8 20 12 13 6 16 19 18 27 42 61 81 97 104 115
36 34 33 31 26 26 19 6 5 13 20 10 10 9 17 34 26 13 12 50 41 37 19 9 8 11 3 3 6 14 35 17 15 5 22 12 28 33 53 64 76 79 84 95
36 34 30 18 12 13 17 10 8 17 15 11 5 7 4 48 19 10 21 12 23 25 11 6 5 16 6 7 2 19 44 24 45 22 20 18 24 32 64 61 72 76 80 94
33 29 17 10 4 5 8 19 29 21 16 6 6 6 1 7 24 16 15 14 7 2 6 7 5 5 5 5 19 32 43 42 43 32 17 25 44 63 68 71 75 85 85 94
25 17 4 5 6 20 19 8 6 9 10 10 6 6 7 6 6 7 10 11 7 5 6 4 5 4 23 41 40 31 34 32 46 51 39 32 40 58 71 79 81 84 97 100
17 10 5 11 16 8 6 4 2 4 5 9 10 10 7 2 3 7 18 6 4 10 4 6 3 6 12 48 34 26 22 20 28 35 40 17 23 35 46 50 55 68 86 95
23 17 17 9 4 3 4 7 7 1 5 5 7 9 9 12 9 3 3 6 7 6 4 8 5 7 45 41 28 14 17 11 14 25 38 33 17 22 32 33 35 49 66 72
10 5 4 4 1 7 5 4 5 6 9 10 16 7 8 6 5 1 3 4 5 5 7 5 5 28 35 36 35 11 8 11 12 15 25 36 31 19 11 22 30 39 47 50
5 3 8 6 5 7 7 4 5 9 14 32 20 9 3 6 3 4 6 4 2 7 7 4 6 22 28 29 30 24 15 12 14 10 11 21 20 26 24 14 22 35 48 61
5 4 6 9 12 10 10 17 8 6 20 20 8 8 6 5 4 5 3 5 7 5 8 8 4 12 23 35 36 33 29 18 12 14 12 7 16 15 20 22 21 28 38 46
6 10 6 11 3 9 7 3 5 15 17 11 4 2 3 4 2 7 5 3 3 5 4 16 13 20 29 34 34 30 23 20 15 13 8 6 8 15 15 19 22 27 27 34
8 12 20 27 24 22 24 19 10 9 14 3 4 5 3 5 5 3 4 6 5 23 22 19 22 23 26 29 29 30 27 13 11 8 7 4 10 17 22 20 21 26 27 30
Wind_Direction_500mb
341 339 341 342 339 341 348 360 8 28 149 80 34 162 204 191 201 237 140 164 231 225 253 224 269 224 238 185 146 152 201 143 200 210 226 205 139 165 185 124 209 57 133 257
340 342 343 345 346 349 353 336 301 190 187 157 271 271 272 213 188 191 159 237 201 152 127 127 264 269 289 15 183 159 178 239 70 351 357 125 184 188 143 115 100 191 127 255
340 342 341 343 347 348 347 334 345 63 210 244 198 229 244 235 231 226 187 200 177 69 298 199 279 277 296 349 321 272 158 140 161 190 196 160 188 173 183 125 122 165 203 171
337 343 344 341 346 347 349 336 303 346 300 277 260 295 291 190 196 216 190 173 210 173 212 209 224 229 296 296 286 221 143 166 169 224 199 183 219 189 178 199 163 151 208 173
330 334 339 340 342 350 351 347 351 339 292 294 237 193 229 233 241 200 247 209 237 205 194 210 337 282 177 264 355 146 248 197 180 228 210 199 224 188 82 73 168 100 127 218
328 332 339 338 334 344 342 339 287 307 282 301 264 220 214 238 116 249 227 216 236 205 235 253 262 250 262 267 14 335 304 136 119 240 217 129 330 232 186 172 175 151 155 207
324 326 336 331 328 325 325 333 334 294 266 255 247 300 311 277 284 260 294 245 129 202 313 305 300 255 243 242 244 193 260 177 137 185 66 175 233 235 208 205 179 156 98 155
331 329 327 315 321 311 302 293 303 261 270 278 296 284 307 306 303 244 227 246 243 273 323 328 287 305 247 232 221 194 199 172 135 153 176 271 287 187 147 159 237 177 134 124
318 319 315 310 311 306 292 288 258 231 269 242 249 308 299 288 308 310 249 249 241 250 150 171 232 202 205 194 129 171 167 232 171 142 167 213 236 224 191 95 230 171 150 149
314 315 309 304 311 306 282 283 246 249 252 264 268 238 284 275 325 266 294 324 145 147 142 194 208 241 192 164 160 154 150 156 210 173 163 263 239 200 145 133 227 164 163 161
312 308 308 305 304 301 278 278 258 262 257 274 268 260 252 241 233 257 324 319 291 47 187 190 224 207 222 159 177 167 149 147 178 119 131 233 171 121 156 195 181 170 171 173
324 312 300 306 299 298 281 279 266 299 257 259 273 279 265 255 251 251 264 286 298 250 24 352 314 264 200 174 200 69 166 175 174 182 206 238 170 176 201 199 179 177 175 175
328 325 320 309 303 292 273 277 272 287 286 291 276 275 269 251 235 238 223 235 233 74 14 308 267 265 132 170 236 116 253 148 148 115 208 213 195 194 198 190 194 181 181 178
324 325 314 313 297 292 287 285 282 279 286 274 289 334 244 289 198 215 226 256 274 294 308 263 250 250 198 222 243 156 190 132 158 155 268 124 205 201 189 197 188 172 171 183
315 318 317 302 294 295 294 291 276 249 223 280 289 302 265 218 189 208 230 260 280 301 304 233 235 258 332 253 320 37 348 169 157 199 190 152 191 200 189 188 181 177 175 171
316 315 314 302 289 288 310 276 181 182 331 293 299 321 278 172 184 200 272 267 281 253 256 251 271 265 233 141 126 314 3 329 267 181 158 202 222 207 209 193 189 188 188 189
319 319 318 304 283 262 255 251 289 317 299 272 297 295 162 161 144 110 260 266 251 225 246 244 272 287 262 104 73 317 5 18 31 215 174 208 206 195 190 187 181 178 177 181
321 320 324 319 287 249 253 221 266 301 272 248 265 259 215 177 167 139 241 254 215 220 237 258 244 296 334 76 289 355 23 34 30 58 184 175 208 197 177 182 176 166 175 178
320 319 311 283 253 256 234 272 287 267 236 277 278 296 256 121 140 154 174 265 254 200 184 216 31 318 45 319 325 341 3 11 14 54 123 138 173 173 174 175 177 174 178 181
324 325 296 247 279 298 292 253 208 214 234 228 250 270 276 309 153 103 55 324 293 355 274 328 76 257 305 356 353 345 356 13 32 48 55 120 145 161 174 181 185 189 188 185
350 335 293 303 313 302 277 258 232 244 254 228 249 250 264 280 129 155 136 218 260 206 259 98 55 318 310 349 355 13 5 18 45 51 46 80 160 165 167 173 183 187 187 187
319 304 302 318 334 323 352 298 316 230 260 265 272 295 280 315 340 22 108 211 239 90 266 66 52 278 345 357 358 17 19 26 53 54 49 63 118 170 175 180 184 186 186 185
313 295 284 312 222 39 215 205 297 313 320 334 323 327 325 304 280 260 340 304 298 199 53 85 314 320 352 7 21 25 11 66 67 76 71 72 90 104 158 179 182 185 184 181
282 325 312 172 244 239 201 219 258 314 299 321 324 295 340 301 330 220 150 250 240 67 67 81 292 337 357 24 37 37 44 58 47 43 86 91 97 106 102 131 173 178 176 177
259 211 240 228 240 258 276 310 274 263 303 325 314 298 332 312 13 13 23 48 62 56 155 174 173 355 16 34 36 36 46 51 39 35 30 119 128 136 140 135 160 181 189 189
245 232 253 234 306 280 249 292 298 353 345 321 293 326 24 10 16 24 357 58 104 137 131 119 94 48 34 34 35 31 27 30 42 60 73 110 197 184 183 174 181 183 188 196
238 244 242 250 270 258 265 268 269 326 341 347 9 2 327 347 21 276 188 195 189 134 136 101 74 52 36 29 25 27 27 13 5 32 67 95 145 173 187 201 207 214 216 227
Wind_Speed_850mb
46 47 49 51 55 55 43 17 5 9 35 6 3 7 11 7 6 3 1 3 6 7 5 1 4 9 9 12 26 18 12 10 8 16 2 9 8 14 12 10 10 3 7 10
45 45 47 49 50 53 51 35 10 5 23 5 4 8 9 5 7 8 7 6 8 3 3 1 4 5 9 11 14 20 15 3 3 14 11 5 9 10 7 9 8 10 11 10
39 41 42 44 44 42 39 15 7 3 15 4 4 4 9 7 12 6 11 8 2 5 3 8 8 5 8 23 5 8 29 9 15 14 15 9 7 12 12 5 9 13 11 7
37 37 38 39 40 37 28 8 5 8 4 4 3 4 5 6 8 8 20 6 11 12 11 7 11 8 12 16 15 11 14 14 12 15 12 10 11 18 23 15 12 13 13 18
34 33 34 37 37 33 14 7 9 15 13 21 5 10 12 18 10 10 8 10 13 13 12 9 5 1 2 10 11 3 2 9 11 16 13 16 13 11 5 7 5 10 14 10
32 31 31 34 34 30 8 6 6 5 14 9 4 8 11 11 8 14 27 20 12 7 11 28 51 49 41 25 6 11 8 14 10 14 8 11 9 16 15 10 9 14 11 16
29 27 31 34 26 25 19 14 9 2 10 5 8 9 13 16 8 7 17 18 9 10 29 45 37 39 43 38 33 33 10 6 8 8 6 8 19 13 22 31 10 10 9 21
29 31 36 35 24 23 24 16 7 6 8 11 22 25 10 23 23 12 17 33 39 28 12 6 9 5 4 19 28 27 33 9 6 13 9 9 9 8 18 18 20 19 20 20
34 34 33 31 28 23 29 20 10 16 8 12 25 10 20 8 6 10 9 15 14 16 9 7 10 12 16 12 6 9 17 17 7 9 15 26 17 13 23 11 10 19 37 40
31 29 27 30 28 27 26 23 20 17 14 44 37 13 8 8 3 5 10 17 0 12 7 11 9 11 11 13 22 16 11 6 29 6 10 13 15 14 41 17 19 51 68 72
34 32 27 31 29 28 26 20 21 30 17 55 61 43 26 10 4 3 12 12 1 6 5 10 10 10 13 6 12 21 15 16 10 6 10 11 19 21 26 20 26 81 69 86
30 29 30 29 27 26 23 21 14 22 29 47 41 61 58 40 37 31 8 9 5 5 3 5 8 8 3 9 9 2 11 15 13 21 14 13 61 45 62 52 64 73 95 79
28 24 26 25 24 23 24 27 23 25 25 59 53 51 30 39 61 57 17 13 6 1 29 11 7 12 7 9 10 10 2 7 12 11 11 16 57 19 51 38 74 96 100 111
31 31 28 23 21 24 27 34 33 33 16 11 17 23 12 11 40 44 50 38 48 50 46 17 9 7 7 7 4 4 7 8 13 2 1 9 32 29 46 39 59 67 83 118
36 36 32 29 26 25 29 38 33 22 20 10 29 52 15 31 30 31 25 39 54 35 14 10 9 7 3 2 2 6 4 9 10 11 13 9 31 60 30 46 68 85 98 85
37 36 35 33 28 26 27 6 8 10 11 12 7 13 1 40 24 28 22 38 62 29 14 14 15 8 3 3 3 8 20 12 13 6 16 19 18 27 42 61 81 97 104 115
36 34 33 31 26 26 19 6 5 13 20 10 10 9 17 34 26 13 12 50 41 37 19 9 8 11 3 3 6 14 35 17 15 5 22 12 28 33 53 64 76 79 84 95
36 34 30 18 12 13 17 10 8 17 15 11 5 7 4 48 19 10 21 12 23 25 11 6 5 16 6 7 2 19 44 24 45 22 20 18 24 32 64 61 72 76 80 94
33 29 17 10 4 5 8 19 29 21 16 6 6 6 1 7 24 16 15 14 7 2 6 7 5 5 5 5 19 32 43 42 43 32 17 25 44 63 68 71 75 85 85 94
25 17 4 5 6 20 19 8 6 9 10 10 6 6 7 6 6 7 10 11 7 5 6 4 5 4 23 41 40 31 34 32 46 51 39 32 40 58 71 79 81 84 97 100
17 10 5 11 16 8 6 4 2 4 5 9 10 10 7 2 3 7 18 6 4 10 4 6 3 6 12 48 34 26 22 20 28 35 40 17 23 35 46 50 55 68 86 95
23 17 17 9 4 3 4 7 7 1 5 5 7 9 9 12 9 3 3 6 7 6 4 8 5 7 45 41 28 14 17 11 14 25 38 33 17 22 32 33 35 49 66 72
10 5 4 4 1 7 5 4 5 6 9 10 16 7 8 6 5 1 3 4 5 5 7 5 5 28 35 36 35 11 8 11 12 15 25 36 31 19 11 22 30 39 47 50
5 3 8 6 5 7 7 4 5 9 14 32 20 9 3 6 3 4 6 4 2 7 7 4 6 22 28 29 30 24 15 12 14 10 11 21 20 26 24 14 22 35 48 61
5 4 6 9 12 10 10 17 8 6 20 20 8 8 6 5 4 5 3 5 7 5 8 8 4 12 23 35 36 33 29 18 12 14 12 7 16 15 20 22 21 28 38 46
6 10 6 11 3 9 7 3 5 15 17 11 4 2 3 4 2 7 5 3 3 5 4 16 13 20 29 34 34 30 23 20 15 13 8 6 8 15 15 19 22 27 27 34
8 12 20 27 24 22 24 19 10 9 14 3 4 5 3 5 5 3 4 6 5 23 22 19 22 23 26 29 29 30 27 13 11 8 7 4 10 17 22 20 21 26 27 30
Wind_Direction_850mb
341 339 341 342 339 341 348 360 8 28 149 80 34 162 204 191 201 237 140 164 231 225 253 224 269 224 238 185 146 152 201 143 200 210 226 205 139 165 185 124 209 57 133 257
340 342 343 345 346 349 353 336 301 190 187 157 271 271 272 213 188 191 159 237 201 152 127 127 264 269 289 15 183 159 178 239 70 351 357 125 184 188 143 115 100 191 127 255
340 342 341 343 347 348 347 334 345 63 210 244 198 229 244 235 231 226 187 200 177 69 298 199 279 277 296 349 321 272 158 140 161 190 196 160 188 173 183 125 122 165 203 171
337 343 344 341 346 347 349 336 303 346 300 277 260 295 291 190 196 216 190 173 210 173 212 209 224 229 296 296 286 221 143 166 169 224 199 183 219 189 178 199 163 151 208 173
330 334 339 340 342 350 351 347 351 339 292 294 237 193 229 233 241 200 247 209 237 205 194 210 337 282 177 264 355 146 248 197 180 228 210 199 224 188 82 73 168 100 127 218
328 332 339 338 334 344 342 339 287 307 282 301 264 220 214 238 116 249 227 216 236 205 235 253 262 250 262 267 14 335 304 136 119 240 217 129 330 232 186 172 175 151 155 207
324 326 336 331 328 325 325 333 334 294 266 255 247 300 311 277 284 260 294 245 129 202 313 305 300 255 243 242 244 193 260 177 137 185 66 175 233 235 208 205 179 156 98 155
331 329 327 315 321 311 302 293 303 261 270 278 296 284 307 306 303 244 227 246 243 273 323 328 287 305 247 232 221 194 199 172 135 153 176 271 287 187 147 159 237 177 134 124
318 319 315 310 311 306 292 288 258 231 269 242 249 308 299 288 308 310 249 249 241 250 150 171 232 202 205 194 129 171 167 232 171 142 167 213 236 224 191 95 230 171 150 149
314 315 309 304 311 306 282 283 246 249 252 264 268 238 284 275 325 266 294 324 145 147 142 194 208 241 192 164 160 154 150 156 210 173 163 263 239 200 145 133 227 164 163 161
312 308 308 305 304 301 278 278 258 262 257 274 268 260 252 241 233 257 324 319 291 47 187 190 224 207 222 159 177 167 149 147 178 119 131 233 171 121 156 195 181 170 171 173
324 312 300 306 299 298 281 279 266 299 257 259 273 279 265 255 251 251 264 286 298 250 24 352 314 264 200 174 200 69 166 175 174 182 206 238 170 176 201 199 179 177 175 175
328 325 320 309 303 292 273 277 272 287 286 291 276 275 269 251 235 238 223 235 233 74 14 308 267 265 132 170 236 116 253 148 148 115 208 213 195 194 198 190 194 181 181 178
324 325 314 313 297 292 287 285 282 279 286 274 289 334 244 289 198 215 226 256 274 294 308 263 250 250 198 222 243 156 190 132 158 155 268 124 205 201 189 197 188 172 171 183
315 318 317 302 294 295 294 291 276 249 223 280 289 302 265 218 189 208 230 260 280 301 304 233 235 258 332 253 320 37 348 169 157 199 190 152 191 200 189 188 181 177 175 171
316 315 314 302 289 288 310 276 181 182 331 293 299 321 278 172 184 200 272 267 281 253 256 251 271 265 233 141 126 314 3 329 267 181 158 202 222 207 209 193 189 188 188 189
319 319 318 304 283 262 255 251 289 317 299 272 297 295 162 161 144 110 260 266 251 225 246 244 272 287 262 104 73 317 5 18 31 215 174 208 206 195 190 187 181 178 177 181
321 320 324 319 287 249 253 221 266 301 272 248 265 259 215 177 167 139 241 254 215 220 237 258 244 296 334 76 289 355 23 34 30 58 184 175 208 197 177 182 176 166 175 178
320 319 311 283 253 256 234 272 287 267 236 277 278 296 256 121 140 154 174 265 254 200 184 216 31 318 45 319 325 341 3 11 14 54 123 138 173 173 174 175 177 174 178 181
324 325 296 247 279 298 292 253 208 214 234 228 250 270 276 309 153 103 55 324 293 355 274 328 76 257 305 356 353 345 356 13 32 48 55 120 145 161 174 181 185 189 188 185
350 335 293 303 313 302 277 258 232 244 254 228 249 250 264 280 129 155 136 218 260 206 259 98 55 318 310 349 355 13 5 18 45 51 46 80 160 165 167 173 183 187 187 187
319 304 302 318 334 323 352 298 316 230 260 265 272 295 280 315 340 22 108 211 239 90 266 66 52 278 345 357 358 17 19 26 53 54 49 63 118 170 175 180 184 186 186 185
313 295 284 312 222 39 215 205 297 313 320 334 323 327 325 304 280 260 340 304 298 199 53 85 314 320 352 7 21 25 11 66 67 76 71 72 90 104 158 179 182 185 184 181
282 325 312 172 244 239 201 219 258 314 299 321 324 295 340 301 330 220 150 250 240 67 67 81 292 337 357 24 37 37 44 58 47 43 86 91 97 106 102 131 173 178 176 177
259 211 240 228 240 258 276 310 274 263 303 325 314 298 332 312 13 13 23 48 62 56 155 174 173 355 16 34 36 36 46 51 39 35 30 119 128 136 140 135 160 181 189 189
245 232 253 234 306 280 249 292 298 353 345 321 293 326 24 10 16 24 357 58 104 137 131 119 94 48 34 34 35 31 27 30 42 60 73 110 197 184 183 174 181 183 188 196
238 244 242 250 270 258 265 268 269 326 341 347 9 2 327 347 21 276 188 195 189 134 136 101 74 52 36 29 25 27 27 13 5 32 67 95 145 173 187 201 207 214 216 227